RYL508 FLKK-FAOR

Flight info

Callsign RYL508
Flight time 2h 21m
Altitude 40000
Route IBSUL1A IBSUL DCT RETAR UG655 OKMON UM215 TAVLA UZ7 OKPIT OKPIT4B
Aircraft C550/L-SDFGHRWY/S

Departure

Time 2026-04-26 08:40
Airport Kenneth Kaunda International Airport (FLKK)

Arrival

Time 2026-04-26 11:02
Airport O.R. Tambo International Airport (FAOR)
Time Latitude Longitude Altitude Speed Heading
2026-04-26 08:08 -15.32609 28.44393 3805 ft 0 kts
2026-04-26 08:29 -15.32606 28.44392 3804 ft 2 kts 326°
2026-04-26 08:29 -15.32614 28.44370 3803 ft 3 kts 228°
2026-04-26 08:30 -15.32626 28.44356 3803 ft 2 kts 226°
2026-04-26 08:30 -15.32649 28.44336 3804 ft 6 kts 217°
2026-04-26 08:30 -15.32701 28.44302 3805 ft 8 kts 193°
2026-04-26 08:30 -15.32773 28.44301 3795 ft 11 kts 155°
2026-04-26 08:31 -15.32832 28.44350 3786 ft 10 kts 141°
2026-04-26 08:31 -15.32850 28.44365 3784 ft 0 kts 141°
2026-04-26 08:38 -15.32851 28.44366 3784 ft 1 kts 141°
2026-04-26 08:38 -15.32882 28.44391 3779 ft 10 kts 141°
2026-04-26 08:38 -15.32935 28.44437 3779 ft 8 kts 140°
2026-04-26 08:38 -15.32975 28.44471 3779 ft 8 kts 139°
2026-04-26 08:39 -15.33015 28.44523 3777 ft 10 kts 105°
2026-04-26 08:39 -15.33017 28.44533 3777 ft 0 kts 97°
2026-04-26 08:39 -15.33036 28.44748 3773 ft 72 kts 95°
2026-04-26 08:40 -15.33113 28.45517 3907 ft 131 kts 96°
2026-04-26 08:40 -15.33219 28.46554 4445 ft 162 kts 95°
2026-04-26 08:40 -15.33342 28.47800 5223 ft 184 kts 95°
2026-04-26 08:40 -15.33540 28.48994 6545 ft 171 kts 107°
2026-04-26 08:41 -15.34167 28.50041 7475 ft 182 kts 131°
2026-04-26 08:41 -15.35292 28.50778 8099 ft 212 kts 156°
2026-04-26 08:41 -15.36819 28.50956 8681 ft 242 kts 180°
2026-04-26 08:41 -15.38533 28.50507 9287 ft 269 kts 200°
2026-04-26 08:42 -15.40152 28.49442 9982 ft 288 kts 218°
2026-04-26 08:42 -15.41519 28.47881 10796 ft 297 kts 228°
2026-04-26 08:42 -15.42802 28.46220 11708 ft 299 kts 228°
2026-04-26 08:42 -15.44107 28.44578 12669 ft 293 kts 226°
2026-04-26 08:43 -15.45338 28.43038 14015 ft 262 kts 226°
2026-04-26 08:43 -15.46351 28.41684 15303 ft 233 kts 228°
2026-04-26 08:43 -15.47283 28.40416 16242 ft 215 kts 225°
2026-04-26 08:43 -15.48255 28.39271 16843 ft 211 kts 217°
2026-04-26 08:44 -15.49406 28.38417 17420 ft 204 kts 200°
2026-04-26 08:44 -15.50712 28.37824 17838 ft 210 kts 197°
2026-04-26 08:44 -15.52150 28.37276 17841 ft 236 kts 195°
2026-04-26 08:44 -15.53787 28.36659 17851 ft 260 kts 196°
2026-04-26 08:45 -15.55538 28.35990 17858 ft 280 kts 196°
2026-04-26 08:45 -15.57401 28.35229 17863 ft 299 kts 201°
2026-04-26 08:45 -15.59215 28.34061 17871 ft 318 kts 214°
2026-04-26 08:45 -15.60864 28.32418 17957 ft 332 kts 226°
2026-04-26 08:46 -15.62099 28.30535 19216 ft 305 kts 238°
2026-04-26 08:46 -15.62808 28.28658 20627 ft 273 kts 251°
2026-04-26 08:46 -15.63230 28.26936 22043 ft 229 kts 244°
2026-04-26 08:46 -15.63848 28.25683 23438 ft 174 kts 232°
2026-04-26 08:47 -15.64396 28.24738 24240 ft 146 kts 234°
2026-04-26 08:47 -15.64898 28.23804 24520 ft 150 kts 236°
2026-04-26 08:47 -15.65475 28.22859 24518 ft 171 kts 229°
2026-04-26 08:47 -15.66280 28.21845 24447 ft 194 kts 218°
2026-04-26 08:48 -15.67458 28.21045 24471 ft 211 kts 202°
2026-04-26 08:48 -15.68909 28.20609 24483 ft 228 kts 188°
2026-04-26 08:48 -15.70567 28.20587 24493 ft 246 kts 174°
2026-04-26 08:48 -15.72237 28.21102 24496 ft 265 kts 150°
2026-04-26 08:49 -15.73575 28.22525 24573 ft 282 kts 131°
2026-04-26 08:49 -15.74863 28.24041 24840 ft 281 kts 146°
2026-04-26 08:49 -15.76566 28.25005 25187 ft 278 kts 160°
2026-04-26 08:49 -15.78409 28.25588 25519 ft 277 kts 168°
2026-04-26 08:50 -15.80277 28.26075 25814 ft 279 kts 168°
2026-04-26 08:50 -15.82150 28.26556 26092 ft 281 kts 168°
2026-04-26 08:50 -15.84036 28.27037 26365 ft 283 kts 168°
2026-04-26 08:50 -15.85961 28.27527 26638 ft 284 kts 169°
2026-04-26 08:51 -15.89842 28.28514 27166 ft 288 kts 169°
2026-04-26 08:51 -15.91790 28.29008 27418 ft 290 kts 169°
2026-04-26 08:51 -15.93734 28.29502 27661 ft 291 kts 169°
2026-04-26 08:52 -15.95717 28.30006 27845 ft 295 kts 169°
2026-04-26 08:52 -15.97708 28.30510 27962 ft 300 kts 169°
2026-04-26 08:52 -15.99751 28.31030 28240 ft 300 kts 169°
2026-04-26 08:52 -16.01751 28.31541 28562 ft 297 kts 169°
2026-04-26 08:53 -16.03741 28.32048 28803 ft 298 kts 169°
2026-04-26 08:53 -16.05771 28.32563 28992 ft 301 kts 169°
2026-04-26 08:53 -16.07831 28.33087 29174 ft 303 kts 169°
2026-04-26 08:53 -16.09878 28.33608 29364 ft 305 kts 169°
2026-04-26 08:54 -16.11924 28.34128 29560 ft 306 kts 169°
2026-04-26 08:54 -16.14014 28.34661 29753 ft 308 kts 169°
2026-04-26 08:54 -16.16067 28.35183 29934 ft 309 kts 169°
2026-04-26 08:54 -16.18177 28.35721 30115 ft 311 kts 169°
2026-04-26 08:55 -16.20272 28.36255 30293 ft 312 kts 169°
2026-04-26 08:55 -16.22369 28.36789 30466 ft 313 kts 169°
2026-04-26 08:55 -16.24496 28.37331 30637 ft 314 kts 169°
2026-04-26 08:55 -16.26598 28.37867 30800 ft 316 kts 169°
2026-04-26 08:56 -16.28749 28.38416 30962 ft 317 kts 169°
2026-04-26 08:56 -16.30161 28.38776 31066 ft 318 kts 169°
2026-04-26 08:56 -16.33018 28.39505 31272 ft 319 kts 169°
2026-04-26 08:56 -16.35193 28.40060 31423 ft 320 kts 170°
2026-04-26 08:57 -16.37333 28.40606 31567 ft 322 kts 170°
2026-04-26 08:57 -16.39537 28.41169 31712 ft 323 kts 170°
2026-04-26 08:57 -16.41704 28.41722 31850 ft 324 kts 170°
2026-04-26 08:57 -16.43905 28.42285 31987 ft 325 kts 170°
2026-04-26 08:58 -16.46082 28.42841 32119 ft 326 kts 170°
2026-04-26 08:58 -16.48269 28.43400 32247 ft 327 kts 170°
2026-04-26 08:58 -16.50492 28.43968 32374 ft 328 kts 170°
2026-04-26 08:58 -16.52692 28.44531 32488 ft 329 kts 170°
2026-04-26 08:59 -16.54932 28.45104 32606 ft 330 kts 170°
2026-04-26 08:59 -16.57158 28.45673 32725 ft 331 kts 170°
2026-04-26 08:59 -16.59372 28.46240 32841 ft 332 kts 170°
2026-04-26 08:59 -16.61618 28.46811 32953 ft 332 kts 171°
2026-04-26 09:00 -16.63882 28.47137 33060 ft 331 kts 178°
2026-04-26 09:00 -16.66190 28.47319 33166 ft 331 kts 180°
2026-04-26 09:00 -16.68466 28.47463 33269 ft 332 kts 180°
2026-04-26 09:00 -16.70763 28.47597 33372 ft 333 kts 180°
2026-04-26 09:01 -16.73090 28.47729 33472 ft 333 kts 180°
2026-04-26 09:01 -16.77715 28.47989 33663 ft 335 kts 180°
2026-04-26 09:02 -16.82365 28.48250 33846 ft 336 kts 180°
2026-04-26 09:02 -16.87013 28.48511 34018 ft 338 kts 180°
2026-04-26 09:03 -16.91737 28.48777 34196 ft 339 kts 180°
2026-04-26 09:03 -16.96427 28.49041 34364 ft 339 kts 180°
2026-04-26 09:04 -17.01125 28.49310 34546 ft 339 kts 181°
2026-04-26 09:04 -17.05802 28.49576 34728 ft 339 kts 181°
2026-04-26 09:05 -17.10523 28.49842 34902 ft 339 kts 181°
2026-04-26 09:05 -17.15213 28.50103 35060 ft 339 kts 182°
2026-04-26 09:06 -17.19916 28.50366 35482 ft 330 kts 182°
2026-04-26 09:06 -17.22119 28.50496 36114 ft 312 kts 182°
2026-04-26 09:06 -17.24251 28.50617 36436 ft 306 kts 182°
2026-04-26 09:07 -17.28521 28.50850 36496 ft 313 kts 182°
2026-04-26 09:07 -17.32899 28.51096 36646 ft 316 kts 182°
2026-04-26 09:07 -17.35080 28.51220 36761 ft 316 kts 182°
2026-04-26 09:08 -17.37294 28.51345 36864 ft 316 kts 182°
2026-04-26 09:08 -17.41686 28.51593 37035 ft 318 kts 182°
2026-04-26 09:09 -17.46133 28.51845 37201 ft 319 kts 182°
2026-04-26 09:09 -17.50588 28.52097 37361 ft 320 kts 182°
2026-04-26 09:10 -17.55018 28.52348 37509 ft 321 kts 182°
2026-04-26 09:10 -17.59511 28.52602 37650 ft 322 kts 182°
2026-04-26 09:11 -17.63995 28.52856 37782 ft 323 kts 182°
2026-04-26 09:11 -17.68484 28.53111 37907 ft 324 kts 182°
2026-04-26 09:12 -17.72972 28.53365 38023 ft 325 kts 182°
2026-04-26 09:12 -17.77486 28.53621 38133 ft 326 kts 182°
2026-04-26 09:13 -17.82045 28.53880 38238 ft 327 kts 182°
2026-04-26 09:13 -17.86579 28.54138 38336 ft 327 kts 182°
2026-04-26 09:14 -17.91126 28.54397 38408 ft 329 kts 182°
2026-04-26 09:14 -17.95695 28.54657 38624 ft 324 kts 182°
2026-04-26 09:14 -17.97859 28.54786 39244 ft 305 kts 182°
2026-04-26 09:15 -17.99924 28.54907 39643 ft 294 kts 182°
2026-04-26 09:15 -18.01966 28.55031 39724 ft 294 kts 184°
2026-04-26 09:15 -18.04009 28.54986 39733 ft 295 kts 187°
2026-04-26 09:15 -18.06081 28.54916 39739 ft 298 kts 187°
2026-04-26 09:16 -18.08157 28.54862 39753 ft 301 kts 187°
2026-04-26 09:16 -18.12334 28.54771 39874 ft 302 kts 186°
2026-04-26 09:17 -18.16502 28.54682 40013 ft 302 kts 186°
2026-04-26 09:17 -18.20691 28.54594 40123 ft 303 kts 186°
2026-04-26 09:18 -18.24917 28.54503 40151 ft 307 kts 186°
2026-04-26 09:18 -18.29194 28.54412 40151 ft 311 kts 186°
2026-04-26 09:19 -18.33543 28.54364 40151 ft 315 kts 184°
2026-04-26 09:19 -18.37942 28.54538 40151 ft 319 kts 183°
2026-04-26 09:20 -18.42391 28.54730 40151 ft 321 kts 183°
2026-04-26 09:20 -18.46871 28.54925 40151 ft 324 kts 183°
2026-04-26 09:21 -18.51339 28.55119 40150 ft 326 kts 182°
2026-04-26 09:21 -18.55881 28.55316 40150 ft 327 kts 182°
2026-04-26 09:22 -18.60413 28.55514 40150 ft 329 kts 182°
2026-04-26 09:22 -18.64987 28.55738 40150 ft 330 kts 182°
2026-04-26 09:23 -18.69565 28.56021 40150 ft 331 kts 181°
2026-04-26 09:23 -18.74192 28.56310 40150 ft 332 kts 181°
2026-04-26 09:24 -18.78800 28.56598 40150 ft 333 kts 181°
2026-04-26 09:24 -18.83398 28.56885 40150 ft 334 kts 181°
2026-04-26 09:25 -18.88028 28.57175 40149 ft 334 kts 181°
2026-04-26 09:25 -18.92642 28.57464 40149 ft 335 kts 182°
2026-04-26 09:26 -18.97300 28.57755 40150 ft 335 kts 182°
2026-04-26 09:26 -19.01926 28.58043 40150 ft 336 kts 182°
2026-04-26 09:27 -19.06594 28.58334 40150 ft 337 kts 182°
2026-04-26 09:27 -19.11277 28.58626 40151 ft 338 kts 182°
2026-04-26 09:28 -19.15962 28.58918 40151 ft 339 kts 182°
2026-04-26 09:28 -19.20662 28.59212 40151 ft 339 kts 182°
2026-04-26 09:29 -19.25365 28.59507 40151 ft 340 kts 182°
2026-04-26 09:29 -19.30088 28.59802 40151 ft 341 kts 182°
2026-04-26 09:30 -19.34805 28.60098 40151 ft 341 kts 182°
2026-04-26 09:30 -19.39550 28.60395 40151 ft 341 kts 182°
2026-04-26 09:31 -19.44251 28.60690 40151 ft 342 kts 182°
2026-04-26 09:31 -19.49014 28.60989 40151 ft 342 kts 182°
2026-04-26 09:32 -19.53736 28.61286 40151 ft 342 kts 182°
2026-04-26 09:32 -19.58466 28.61583 40153 ft 343 kts 182°
2026-04-26 09:33 -19.63227 28.61883 40155 ft 343 kts 182°
2026-04-26 09:33 -19.67957 28.62180 40157 ft 343 kts 182°
2026-04-26 09:34 -19.72702 28.62479 40162 ft 343 kts 182°
2026-04-26 09:34 -19.77439 28.62777 40168 ft 343 kts 182°
2026-04-26 09:35 -19.82205 28.63078 40174 ft 343 kts 182°
2026-04-26 09:35 -19.86937 28.63376 40178 ft 343 kts 182°
2026-04-26 09:36 -19.91686 28.63676 40178 ft 343 kts 182°
2026-04-26 09:36 -19.96437 28.63976 40178 ft 343 kts 182°
2026-04-26 09:37 -20.01188 28.64276 40178 ft 343 kts 182°
2026-04-26 09:37 -20.05894 28.63976 40178 ft 338 kts 192°
2026-04-26 09:38 -20.10524 28.63388 40178 ft 338 kts 192°
2026-04-26 09:38 -20.15199 28.62778 40178 ft 338 kts 192°
2026-04-26 09:39 -20.19868 28.62167 40178 ft 338 kts 192°
2026-04-26 09:39 -20.24517 28.61559 40178 ft 338 kts 192°
2026-04-26 09:40 -20.29162 28.60951 40178 ft 338 kts 192°
2026-04-26 09:40 -20.33824 28.60340 40178 ft 338 kts 192°
2026-04-26 09:41 -20.38489 28.59728 40178 ft 339 kts 192°
2026-04-26 09:41 -20.43169 28.59115 40178 ft 339 kts 192°
2026-04-26 09:42 -20.47825 28.58503 40178 ft 339 kts 192°
2026-04-26 09:42 -20.52484 28.57891 40177 ft 339 kts 192°
2026-04-26 09:43 -20.57155 28.57277 40177 ft 339 kts 192°
2026-04-26 09:43 -20.61801 28.56667 40177 ft 339 kts 192°
2026-04-26 09:44 -20.66461 28.56053 40177 ft 339 kts 192°
2026-04-26 09:44 -20.71131 28.55440 40274 ft 336 kts 192°
2026-04-26 09:45 -20.75737 28.54832 40285 ft 336 kts 192°
2026-04-26 09:45 -20.80375 28.54220 40285 ft 337 kts 192°
2026-04-26 09:46 -20.85017 28.53608 40285 ft 337 kts 192°
2026-04-26 09:46 -20.89642 28.52997 40285 ft 337 kts 192°
2026-04-26 09:47 -20.94293 28.52383 40285 ft 338 kts 192°
2026-04-26 09:47 -20.98949 28.51769 40285 ft 338 kts 192°
2026-04-26 09:48 -21.03579 28.51159 40285 ft 338 kts 193°
2026-04-26 09:48 -21.08211 28.50547 40285 ft 338 kts 193°
2026-04-26 09:49 -21.12866 28.49930 40286 ft 337 kts 193°
2026-04-26 09:49 -21.17491 28.49314 40290 ft 337 kts 193°
2026-04-26 09:50 -21.22138 28.48697 40295 ft 336 kts 193°
2026-04-26 09:50 -21.26743 28.48086 40301 ft 336 kts 193°
2026-04-26 09:51 -21.31366 28.47473 40309 ft 335 kts 193°
2026-04-26 09:51 -21.35987 28.46859 40320 ft 335 kts 193°
2026-04-26 09:52 -21.40574 28.46249 40330 ft 335 kts 193°
2026-04-26 09:52 -21.47485 28.45330 40339 ft 334 kts 193°
2026-04-26 09:53 -21.52078 28.44718 40339 ft 334 kts 193°
2026-04-26 09:53 -21.56675 28.44106 40339 ft 334 kts 193°
2026-04-26 09:54 -21.61275 28.43493 40339 ft 334 kts 193°
2026-04-26 09:54 -21.65872 28.42873 40339 ft 334 kts 193°
2026-04-26 09:55 -21.70469 28.42233 40339 ft 334 kts 193°
2026-04-26 09:55 -21.75061 28.41592 40339 ft 334 kts 193°
2026-04-26 09:56 -21.79664 28.40949 40338 ft 334 kts 193°
2026-04-26 09:56 -21.84236 28.40310 40338 ft 334 kts 193°
2026-04-26 09:57 -21.88839 28.39666 40338 ft 334 kts 193°
2026-04-26 09:57 -21.93407 28.39027 40338 ft 334 kts 193°
2026-04-26 09:58 -21.97996 28.38384 40338 ft 334 kts 193°
2026-04-26 09:58 -22.02594 28.37740 40338 ft 334 kts 193°
2026-04-26 09:59 -22.06423 28.37203 40338 ft 334 kts 193°
2026-04-26 09:59 -22.11784 28.36452 40339 ft 334 kts 193°
2026-04-26 10:00 -22.16366 28.35807 40339 ft 334 kts 193°
2026-04-26 10:00 -22.20975 28.35159 40339 ft 334 kts 193°
2026-04-26 10:01 -22.25550 28.34516 40339 ft 334 kts 193°
2026-04-26 10:01 -22.30165 28.33867 40339 ft 334 kts 193°
2026-04-26 10:02 -22.34762 28.33220 40339 ft 335 kts 193°
2026-04-26 10:02 -22.39354 28.32573 40338 ft 335 kts 193°
2026-04-26 10:03 -22.43960 28.31924 40338 ft 335 kts 193°
2026-04-26 10:03 -22.48548 28.31276 40338 ft 335 kts 193°
2026-04-26 10:04 -22.53167 28.30624 40338 ft 335 kts 193°
2026-04-26 10:04 -22.57801 28.29970 40338 ft 335 kts 193°
2026-04-26 10:05 -22.62452 28.29679 40342 ft 343 kts 179°
2026-04-26 10:05 -22.67196 28.30658 40337 ft 347 kts 173°
2026-04-26 10:06 -22.71879 28.31885 40338 ft 348 kts 172°
2026-04-26 10:06 -22.76598 28.33148 40338 ft 348 kts 172°
2026-04-26 10:07 -22.81292 28.34406 40338 ft 348 kts 172°
2026-04-26 10:07 -22.85993 28.35667 40338 ft 348 kts 172°
2026-04-26 10:08 -22.90687 28.36927 40337 ft 348 kts 172°
2026-04-26 10:08 -22.95423 28.38200 40338 ft 349 kts 172°
2026-04-26 10:09 -22.99336 28.39250 40339 ft 350 kts 172°
2026-04-26 10:09 -23.04859 28.40735 40340 ft 352 kts 172°
2026-04-26 10:10 -23.09613 28.42016 40340 ft 354 kts 172°
2026-04-26 10:10 -23.14388 28.43303 40339 ft 356 kts 172°
2026-04-26 10:11 -23.19162 28.44590 40339 ft 357 kts 172°
2026-04-26 10:11 -23.23978 28.45889 40339 ft 358 kts 172°
2026-04-26 10:12 -23.28795 28.47190 40339 ft 359 kts 172°
2026-04-26 10:12 -23.33634 28.48498 40339 ft 360 kts 172°
2026-04-26 10:13 -23.38501 28.49814 40340 ft 360 kts 172°
2026-04-26 10:13 -23.43356 28.51128 40340 ft 361 kts 172°
2026-04-26 10:14 -23.48202 28.52441 40340 ft 361 kts 172°
2026-04-26 10:14 -23.53067 28.53759 40340 ft 362 kts 172°
2026-04-26 10:15 -23.57948 28.55082 40348 ft 362 kts 172°
2026-04-26 10:15 -23.60373 28.55738 40160 ft 368 kts 172°
2026-04-26 10:15 -23.62860 28.56415 40077 ft 363 kts 172°
2026-04-26 10:16 -23.67678 28.57727 39726 ft 359 kts 172°
2026-04-26 10:16 -23.70037 28.58370 39360 ft 348 kts 172°
2026-04-26 10:16 -23.72364 28.59006 38986 ft 337 kts 172°
2026-04-26 10:17 -23.74576 28.59610 38621 ft 328 kts 173°
2026-04-26 10:17 -23.76733 28.60197 38255 ft 319 kts 173°
2026-04-26 10:17 -23.78880 28.60782 37882 ft 312 kts 173°
2026-04-26 10:17 -23.80951 28.61345 37515 ft 305 kts 173°
2026-04-26 10:18 -23.82960 28.61868 37152 ft 297 kts 175°
2026-04-26 10:18 -23.84952 28.62300 36787 ft 291 kts 176°
2026-04-26 10:18 -23.86922 28.62709 36419 ft 286 kts 177°
2026-04-26 10:18 -23.88862 28.63109 36052 ft 282 kts 177°
2026-04-26 10:19 -23.90754 28.63499 35688 ft 278 kts 177°
2026-04-26 10:19 -23.92637 28.63886 35304 ft 276 kts 177°
2026-04-26 10:19 -23.94527 28.64272 34819 ft 279 kts 177°
2026-04-26 10:19 -23.96445 28.64665 34330 ft 281 kts 177°
2026-04-26 10:20 -23.98387 28.65064 33836 ft 283 kts 176°
2026-04-26 10:20 -23.99667 28.65327 33502 ft 284 kts 176°
2026-04-26 10:20 -24.02267 28.65859 32831 ft 286 kts 176°
2026-04-26 10:20 -24.04213 28.66260 32332 ft 288 kts 176°
2026-04-26 10:21 -24.06196 28.66669 31826 ft 289 kts 175°
2026-04-26 10:21 -24.08159 28.67075 31327 ft 290 kts 175°
2026-04-26 10:21 -24.10122 28.67481 30831 ft 291 kts 175°
2026-04-26 10:21 -24.12103 28.67890 30325 ft 292 kts 175°
2026-04-26 10:22 -24.14095 28.68302 29817 ft 292 kts 174°
2026-04-26 10:22 -24.16105 28.68718 29307 ft 293 kts 174°
2026-04-26 10:22 -24.18105 28.69132 28799 ft 293 kts 174°
2026-04-26 10:22 -24.20094 28.69544 28295 ft 293 kts 174°
2026-04-26 10:23 -24.22082 28.69956 27791 ft 293 kts 173°
2026-04-26 10:23 -24.24098 28.70374 27281 ft 293 kts 173°
2026-04-26 10:23 -24.26096 28.70788 26775 ft 293 kts 173°
2026-04-26 10:23 -24.28081 28.71199 26272 ft 292 kts 173°
2026-04-26 10:24 -24.30080 28.71614 25765 ft 292 kts 172°
2026-04-26 10:24 -24.32086 28.72031 25256 ft 291 kts 172°
2026-04-26 10:24 -24.34065 28.72441 24754 ft 291 kts 172°
2026-04-26 10:24 -24.36032 28.72850 24253 ft 290 kts 172°
2026-04-26 10:25 -24.38005 28.73259 23750 ft 289 kts 171°
2026-04-26 10:25 -24.39979 28.73670 23245 ft 288 kts 171°
2026-04-26 10:25 -24.41938 28.74077 22743 ft 287 kts 171°
2026-04-26 10:25 -24.43889 28.74482 22242 ft 286 kts 171°
2026-04-26 10:26 -24.45830 28.74886 21741 ft 285 kts 170°
2026-04-26 10:26 -24.47780 28.75292 21236 ft 284 kts 170°
2026-04-26 10:26 -24.49701 28.75692 20737 ft 282 kts 170°
2026-04-26 10:26 -24.51612 28.76090 20238 ft 281 kts 170°
2026-04-26 10:27 -24.53521 28.76487 19737 ft 279 kts 169°
2026-04-26 10:27 -24.55419 28.76883 19237 ft 278 kts 169°
2026-04-26 10:27 -24.57298 28.77275 18739 ft 276 kts 169°
2026-04-26 10:27 -24.59166 28.77664 18241 ft 275 kts 169°
2026-04-26 10:28 -24.61031 28.78053 17741 ft 273 kts 169°
2026-04-26 10:28 -24.62889 28.78441 17240 ft 271 kts 169°
2026-04-26 10:28 -24.64727 28.78824 16742 ft 269 kts 168°
2026-04-26 10:28 -24.66556 28.79206 16242 ft 268 kts 168°
2026-04-26 10:29 -24.68359 28.79583 15896 ft 260 kts 168°
2026-04-26 10:29 -24.70110 28.79949 15646 ft 256 kts 168°
2026-04-26 10:29 -24.71862 28.80316 15396 ft 254 kts 168°
2026-04-26 10:29 -24.73596 28.80678 15146 ft 253 kts 168°
2026-04-26 10:30 -24.75313 28.81036 14900 ft 256 kts 168°
2026-04-26 10:30 -24.77076 28.81405 14656 ft 263 kts 168°
2026-04-26 10:30 -24.78908 28.81788 14407 ft 268 kts 168°
2026-04-26 10:30 -24.80743 28.82171 14162 ft 272 kts 168°
2026-04-26 10:31 -24.82612 28.82562 13915 ft 275 kts 168°
2026-04-26 10:31 -24.84483 28.82953 13670 ft 277 kts 168°
2026-04-26 10:31 -24.86381 28.83351 13423 ft 279 kts 167°
2026-04-26 10:31 -24.88299 28.83753 13174 ft 280 kts 167°
2026-04-26 10:32 -24.90205 28.84152 12927 ft 280 kts 167°
2026-04-26 10:32 -24.92124 28.84554 12679 ft 281 kts 167°
2026-04-26 10:32 -24.94047 28.84858 12432 ft 282 kts 180°
2026-04-26 10:32 -24.95974 28.84658 12324 ft 277 kts 185°
2026-04-26 10:33 -24.97864 28.84362 12312 ft 270 kts 188°
2026-04-26 10:33 -24.99669 28.84021 12313 ft 262 kts 189°
2026-04-26 10:33 -25.01436 28.83664 12315 ft 252 kts 189°
2026-04-26 10:33 -25.03130 28.83314 12318 ft 244 kts 190°
2026-04-26 10:34 -25.04781 28.82969 12321 ft 238 kts 190°
2026-04-26 10:34 -25.06396 28.82630 12324 ft 232 kts 190°
2026-04-26 10:34 -25.07947 28.82304 12327 ft 227 kts 190°
2026-04-26 10:34 -25.09485 28.81981 12330 ft 223 kts 190°
2026-04-26 10:35 -25.11000 28.81663 12331 ft 220 kts 190°
2026-04-26 10:35 -25.12506 28.81345 12333 ft 216 kts 190°
2026-04-26 10:35 -25.13952 28.81041 12334 ft 214 kts 190°
2026-04-26 10:35 -25.15413 28.80734 12334 ft 211 kts 190°
2026-04-26 10:36 -25.16853 28.80431 12334 ft 210 kts 190°
2026-04-26 10:36 -25.18278 28.80129 12335 ft 208 kts 190°
2026-04-26 10:36 -25.19693 28.79830 12335 ft 206 kts 190°
2026-04-26 10:36 -25.21066 28.79440 12335 ft 206 kts 197°
2026-04-26 10:37 -25.22420 28.78957 12335 ft 205 kts 197°
2026-04-26 10:37 -25.23770 28.78464 12334 ft 204 kts 198°
2026-04-26 10:37 -25.25115 28.77970 12334 ft 203 kts 198°
2026-04-26 10:37 -25.26459 28.77475 12335 ft 202 kts 198°
2026-04-26 10:38 -25.27789 28.76985 12335 ft 202 kts 198°
2026-04-26 10:38 -25.29112 28.76496 12335 ft 201 kts 198°
2026-04-26 10:38 -25.30446 28.76004 12335 ft 201 kts 198°
2026-04-26 10:38 -25.31759 28.75519 12335 ft 200 kts 198°
2026-04-26 10:39 -25.33082 28.75030 12335 ft 200 kts 198°
2026-04-26 10:39 -25.34415 28.74537 12335 ft 200 kts 198°
2026-04-26 10:39 -25.35760 28.74040 12339 ft 211 kts 198°
2026-04-26 10:39 -25.37176 28.73517 12339 ft 222 kts 198°
2026-04-26 10:40 -25.38668 28.72965 12339 ft 234 kts 198°
2026-04-26 10:40 -25.40259 28.72375 12339 ft 248 kts 198°
2026-04-26 10:40 -25.41928 28.71757 12338 ft 259 kts 198°
2026-04-26 10:40 -25.43679 28.71109 12338 ft 269 kts 198°
2026-04-26 10:41 -25.45463 28.70447 12337 ft 276 kts 198°
2026-04-26 10:41 -25.47297 28.69768 12337 ft 282 kts 198°
2026-04-26 10:41 -25.49184 28.69069 12336 ft 287 kts 198°
2026-04-26 10:41 -25.51085 28.68363 12336 ft 290 kts 198°
2026-04-26 10:42 -25.53024 28.67644 12336 ft 293 kts 198°
2026-04-26 10:42 -25.54303 28.67170 12336 ft 295 kts 198°
2026-04-26 10:42 -25.56908 28.66204 12336 ft 297 kts 198°
2026-04-26 10:42 -25.58855 28.65481 12336 ft 299 kts 198°
2026-04-26 10:43 -25.60833 28.64746 12336 ft 300 kts 198°
2026-04-26 10:43 -25.62807 28.64013 12336 ft 301 kts 198°
2026-04-26 10:43 -25.64795 28.63274 12336 ft 301 kts 198°
2026-04-26 10:43 -25.66768 28.62540 12336 ft 302 kts 198°
2026-04-26 10:44 -25.68761 28.61800 12336 ft 301 kts 198°
2026-04-26 10:44 -25.70724 28.61069 12335 ft 294 kts 198°
2026-04-26 10:44 -25.72653 28.60352 12335 ft 288 kts 198°
2026-04-26 10:44 -25.74524 28.59656 12335 ft 284 kts 198°
2026-04-26 10:45 -25.76373 28.58968 12335 ft 280 kts 198°
2026-04-26 10:45 -25.78209 28.58287 12335 ft 277 kts 198°
2026-04-26 10:45 -25.80044 28.57605 12335 ft 275 kts 198°
2026-04-26 10:45 -25.81838 28.56936 12335 ft 273 kts 198°
2026-04-26 10:46 -25.83615 28.56273 12351 ft 271 kts 198°
2026-04-26 10:46 -25.85412 28.55603 12361 ft 270 kts 198°
2026-04-26 10:46 -25.87166 28.54949 12363 ft 269 kts 198°
2026-04-26 10:46 -25.88942 28.54286 12363 ft 268 kts 198°
2026-04-26 10:47 -25.90703 28.53629 12363 ft 268 kts 198°
2026-04-26 10:47 -25.92464 28.52972 12363 ft 267 kts 198°
2026-04-26 10:47 -25.94223 28.52315 12361 ft 267 kts 198°
2026-04-26 10:47 -25.95991 28.51654 12358 ft 267 kts 198°
2026-04-26 10:48 -25.97742 28.51000 12355 ft 267 kts 198°
2026-04-26 10:48 -25.99505 28.50341 12352 ft 267 kts 198°
2026-04-26 10:48 -26.01249 28.49688 12349 ft 267 kts 198°
2026-04-26 10:48 -26.03027 28.49024 12347 ft 267 kts 198°
2026-04-26 10:49 -26.04780 28.48368 12222 ft 270 kts 198°
2026-04-26 10:49 -26.06552 28.47704 11869 ft 272 kts 198°
2026-04-26 10:49 -26.08361 28.47027 11494 ft 275 kts 198°
2026-04-26 10:49 -26.10175 28.46348 11121 ft 277 kts 198°
2026-04-26 10:50 -26.11977 28.45672 10750 ft 278 kts 198°
2026-04-26 10:50 -26.13220 28.45207 10495 ft 278 kts 198°
2026-04-26 10:50 -26.15645 28.44298 9999 ft 279 kts 198°
2026-04-26 10:50 -26.17499 28.43602 9619 ft 279 kts 199°
2026-04-26 10:51 -26.19323 28.42901 9245 ft 279 kts 198°
2026-04-26 10:51 -26.22876 28.41525 8999 ft 262 kts 202°
2026-04-26 10:51 -26.24520 28.40747 8995 ft 252 kts 203°
2026-04-26 10:52 -26.26102 28.40004 8993 ft 236 kts 203°
2026-04-26 10:52 -26.27559 28.39319 8993 ft 222 kts 203°
2026-04-26 10:52 -26.28941 28.38671 8993 ft 211 kts 203°
2026-04-26 10:52 -26.30263 28.38049 8992 ft 197 kts 203°
2026-04-26 10:53 -26.31490 28.37469 8992 ft 185 kts 203°
2026-04-26 10:53 -26.32642 28.36927 8992 ft 175 kts 203°
2026-04-26 10:53 -26.33749 28.36408 8994 ft 171 kts 203°
2026-04-26 10:54 -26.35991 28.35357 8999 ft 180 kts 203°
2026-04-26 10:54 -26.37158 28.34813 8999 ft 185 kts 203°
2026-04-26 10:54 -26.38276 28.34119 8999 ft 187 kts 228°
2026-04-26 10:54 -26.38742 28.32772 8848 ft 195 kts 271°
2026-04-26 10:55 -26.38571 28.31248 8613 ft 204 kts 282°
2026-04-26 10:55 -26.38271 28.29659 8365 ft 212 kts 283°
2026-04-26 10:55 -26.37951 28.28033 8118 ft 218 kts 284°
2026-04-26 10:55 -26.37730 28.26923 8027 ft 218 kts 284°
2026-04-26 10:56 -26.37301 28.24763 8003 ft 211 kts 284°
2026-04-26 10:56 -26.36992 28.23184 8003 ft 206 kts 283°
2026-04-26 10:56 -26.36696 28.21653 8004 ft 201 kts 284°
2026-04-26 10:56 -26.35958 28.20387 8011 ft 194 kts 328°
2026-04-26 10:57 -26.34733 28.19815 8009 ft 192 kts 343°
2026-04-26 10:57 -26.33424 28.19663 8007 ft 190 kts
2026-04-26 10:57 -26.32139 28.19920 8005 ft 188 kts 13°
2026-04-26 10:57 -26.30884 28.20304 8001 ft 182 kts 14°
2026-04-26 10:58 -26.29678 28.20550 7990 ft 176 kts 13°
2026-04-26 10:58 -26.28526 28.20979 7947 ft 174 kts 21°
2026-04-26 10:58 -26.27413 28.21488 7873 ft 171 kts 20°
2026-04-26 10:58 -26.26272 28.21882 7606 ft 171 kts 14°
2026-04-26 10:59 -26.25115 28.22217 7238 ft 175 kts 15°
2026-04-26 10:59 -26.23962 28.22583 6965 ft 173 kts 16°
2026-04-26 10:59 -26.22841 28.22962 6768 ft 160 kts 14°
2026-04-26 10:59 -26.21835 28.23247 6676 ft 136 kts 12°
2026-04-26 11:00 -26.20967 28.23478 6534 ft 123 kts 12°
2026-04-26 11:00 -26.20124 28.23726 6377 ft 130 kts 14°
2026-04-26 11:00 -26.19288 28.23973 6223 ft 120 kts 14°
2026-04-26 11:00 -26.18491 28.24207 6040 ft 116 kts 14°
2026-04-26 11:01 -26.17712 28.24443 5867 ft 117 kts 13°
2026-04-26 11:01 -26.16906 28.24682 5668 ft 122 kts 14°
2026-04-26 11:01 -26.16128 28.24927 5555 ft 105 kts 12°
2026-04-26 11:01 -26.15503 28.25114 5544 ft 84 kts 17°
2026-04-26 11:02 -26.15051 28.25252 5544 ft 45 kts 15°
2026-04-26 11:02 -26.14791 28.25331 5539 ft 32 kts
2026-04-26 11:02 -26.14598 28.25314 5535 ft 20 kts 346°
2026-04-26 11:02 -26.14540 28.25282 5534 ft 1 kts 319°
2026-04-26 11:03 -26.14535 28.25277 5534 ft 0 kts 316°
2026-04-26 11:03 -26.14533 28.25275 5534 ft 0 kts 316°
2026-04-26 11:03 -26.14527 28.25268 5534 ft 1 kts 315°
2026-04-26 11:03 -26.14516 28.25256 5533 ft 2 kts 314°
2026-04-26 11:04 -26.14500 28.25237 5533 ft 3 kts 313°
2026-04-26 11:04 -26.14490 28.25227 5533 ft 0 kts 325°
2026-04-26 11:05 -26.14480 28.25218 5532 ft 4 kts 316°
2026-04-26 11:06 -26.14437 28.25170 5531 ft 11 kts 314°
2026-04-26 11:06 -26.14393 28.25121 5529 ft 15 kts 315°
2026-04-26 11:06 -26.14270 28.24989 5524 ft 19 kts 314°
2026-04-26 11:06 -26.14179 28.24891 5523 ft 16 kts 316°
2026-04-26 11:07 -26.14100 28.24806 5520 ft 14 kts 315°
2026-04-26 11:07 -26.14031 28.24732 5517 ft 13 kts 316°
2026-04-26 11:07 -26.13970 28.24664 5516 ft 12 kts 316°
2026-04-26 11:07 -26.13915 28.24604 5516 ft 10 kts 316°
2026-04-26 11:08 -26.13865 28.24551 5516 ft 10 kts 316°
2026-04-26 11:08 -26.13814 28.24496 5516 ft 10 kts 316°
2026-04-26 11:08 -26.13760 28.24438 5516 ft 11 kts 315°
2026-04-26 11:08 -26.13705 28.24376 5516 ft 11 kts 315°
2026-04-26 11:09 -26.13647 28.24311 5518 ft 11 kts 315°
2026-04-26 11:09 -26.13595 28.24256 5520 ft 9 kts 315°
2026-04-26 11:09 -26.13551 28.24208 5522 ft 9 kts 316°
2026-04-26 11:09 -26.13493 28.24146 5524 ft 13 kts 315°
2026-04-26 11:10 -26.13418 28.24064 5528 ft 14 kts 316°
2026-04-26 11:10 -26.13358 28.23999 5530 ft 10 kts 316°
2026-04-26 11:10 -26.13302 28.23938 5533 ft 12 kts 315°
2026-04-26 11:10 -26.13227 28.23856 5536 ft 18 kts 315°
2026-04-26 11:11 -26.13175 28.23800 5539 ft 4 kts 315°
2026-04-26 11:11 -26.13160 28.23783 5539 ft 3 kts 316°
2026-04-26 11:11 -26.13139 28.23741 5541 ft 11 kts 271°
2026-04-26 11:11 -26.13234 28.23667 5548 ft 24 kts 197°
2026-04-26 11:12 -26.13419 28.23609 5555 ft 26 kts 195°
2026-04-26 11:12 -26.13579 28.23560 5559 ft 21 kts 195°
2026-04-26 11:12 -26.13708 28.23520 5562 ft 17 kts 195°
2026-04-26 11:12 -26.13788 28.23475 5564 ft 9 kts 253°
2026-04-26 11:13 -26.13782 28.23428 5567 ft 5 kts 286°
2026-04-26 11:13 -26.13769 28.23374 5570 ft 8 kts 284°
2026-04-26 11:13 -26.13762 28.23323 5573 ft 4 kts 271°
2026-04-26 11:13 -26.13767 28.23297 5574 ft 5 kts 240°
2026-04-26 11:14 -26.13790 28.23266 5575 ft 4 kts 229°
2026-04-26 11:14 -26.13805 28.23241 5576 ft 3 kts 213°
2026-04-26 11:14 -26.13830 28.23243 5576 ft 5 kts 176°
2026-04-26 11:14 -26.13844 28.23235 5576 ft 2 kts 247°
2026-04-26 11:15 -26.13843 28.23228 5576 ft 0 kts 308°